Santa Fe, NM

4:24 AM MST on December 05, 2016 (GMT -0700)
Santa Fe Municipal

Weather History for KSAF - October, 2013

Change the Weather History Date:

Tuesday, October 15, 2013

  Actual Average Record
Temperature  
Mean Temperature 45 °F -  
Max Temperature 57 °F 73 °F 81 °F (2016)
Min Temperature 33 °F 33 °F 32 °F (1997)
Degree Days  
Heating Degree Days 20    
Moisture  
Dew Point 27 °F    
Average Humidity 50    
Maximum Humidity 73    
Minimum Humidity 33    
Precipitation  
Precipitation 0.01 in - - ()
Sea Level Pressure  
Sea Level Pressure 30.00 in    
Wind  
Wind Speed 12 mph (ESE)    
Max Wind Speed 25 mph    
Max Gust Speed 33 mph    
Visibility 10 miles    
Events Rain    
Averages and records for this station are not official NWS values.
T = Trace of Precipitation, MM = Missing Value Source: NWS Daily Summary

Daily Weather History Graph

Daily Weather History Graph

Search for Another Location

Airport or City:

Trip Planner

Search our weather history database for the weather conditions in past years. The results will help you decide how hot, cold, wet, or windy it might be!

Date:

Astronomy

Oct. 15, 2013 Rise Set
Actual Time 7:11 AM MDT 6:28 PM MDT
Civil Twilight 6:45 AM MDT 6:54 PM MDT
Nautical Twilight 6:15 AM MDT 7:23 PM MDT
Astronomical Twilight 5:46 AM MDT 7:53 PM MDT
Moon 4:29 PM MDT (10/15) 3:43 AM MDT (10/15)
Length of Visible Light 12h 08m
Length of Day
11h 17m
Waxing Gibbous, 88% of the Moon is Illuminated
Oct 15
Waxing Gibbous
Oct 18
Full
Oct 26
Last Quarter
Nov 3
New
Nov 9
First Quarter

Hourly Weather History & Observations

Time (MDT) Temp. Windchill Dew Point Humidity Pressure Visibility Wind Dir Wind Speed Gust Speed Precip Events Conditions
12:53 AM 39.0 °F 32.8 °F 23.0 °F 53% 29.97 in 10.0 mi North 9.2 mph - N/A   Clear
1:53 AM 39.9 °F 33.4 °F 23.0 °F 51% 29.97 in 10.0 mi North 10.4 mph - N/A   Clear
2:53 AM 37.9 °F 30.9 °F 23.0 °F 55% 29.99 in 10.0 mi North 10.4 mph - N/A   Clear
3:53 AM 37.9 °F 31.5 °F 23.0 °F 55% 29.98 in 10.0 mi NNE 9.2 mph - N/A   Clear
4:53 AM 34.0 °F 28.0 °F 21.9 °F 61% 30.01 in 10.0 mi North 6.9 mph - N/A   Clear
5:53 AM 33.1 °F 26.1 °F 23.0 °F 66% 30.03 in 10.0 mi North 8.1 mph - N/A   Clear
6:53 AM 34.0 °F - 21.9 °F 61% 30.07 in 10.0 mi Calm Calm - N/A   Clear
7:53 AM 34.0 °F - 24.1 °F 67% 30.10 in 10.0 mi Calm Calm - N/A   Clear
8:53 AM 42.1 °F - 21.9 °F 45% 30.09 in 10.0 mi Calm Calm - N/A   Clear
9:53 AM 50.0 °F - 28.9 °F 44% 30.06 in 10.0 mi SSE 16.1 mph 21.9 mph N/A   Clear
10:53 AM 53.1 °F - 28.0 °F 38% 30.03 in 10.0 mi SSE 17.3 mph 26.5 mph N/A   Clear
11:53 AM 54.0 °F - 28.9 °F 38% 30.01 in 10.0 mi SE 20.7 mph 27.6 mph N/A   Clear
12:53 PM 57.0 °F - 28.0 °F 33% 29.98 in 10.0 mi SSE 16.1 mph 28.8 mph N/A   Clear
1:53 PM 57.0 °F - 28.0 °F 33% 29.94 in 10.0 mi SSE 21.9 mph 26.5 mph N/A   Clear
2:53 PM 57.0 °F - 28.9 °F 34% 29.93 in 10.0 mi SE 25.3 mph 29.9 mph N/A   Clear
3:53 PM 57.0 °F - 28.9 °F 34% 29.93 in 10.0 mi SE 23.0 mph 32.2 mph N/A   Clear
4:53 PM 54.0 °F - 28.0 °F 37% 29.96 in 10.0 mi SE 21.9 mph 28.8 mph N/A   Clear
5:53 PM 51.1 °F - 28.0 °F 41% 29.98 in 10.0 mi SE 20.7 mph 28.8 mph N/A   Overcast
6:53 PM 48.9 °F - 27.0 °F 43% 29.99 in 10.0 mi SE 17.3 mph 25.3 mph N/A   Overcast
7:53 PM 46.9 °F - 30.9 °F 54% 30.02 in 10.0 mi SE 17.3 mph 24.2 mph 0.00 in Rain Light Rain
8:53 PM 45.0 °F 36.9 °F 30.9 °F 58% 30.04 in 10.0 mi SE 20.7 mph 33.4 mph 0.00 in Rain Light Rain
9:53 PM 43.0 °F 34.2 °F 32.0 °F 65% 30.01 in 10.0 mi ESE 20.7 mph 27.6 mph 0.00 in Rain Light Rain
10:53 PM 41.0 °F 31.1 °F 33.1 °F 73% 30.02 in 10.0 mi SE 23.0 mph 28.8 mph 0.00 in Rain Light Rain
11:53 PM 41.0 °F 32.2 °F 32.0 °F 70% 30.00 in 10.0 mi SE 18.4 mph 26.5 mph 0.01 in Rain Light Rain